Back to catalog

STARLINK-32447

AliveCommunicationsVLEO
NORAD 61261·PAYLOAD·🇺🇸 United States

Launched Sep 25, 2024 from Vandenberg Space Force Base

Loading…

Next Passes (next 24 hours)

TLE

FreshSource: CelesTrak SupGP

Epoch: Sep 14, 2026, 20:46 UTC

1 61261C 24175U   26257.86576389  .00025036  00000+0  74006-3 0  2571
2 61261  53.1589  32.1854 0001229  82.2017 208.8964 15.34362007    15

Track STARLINK-32447 in real time with AllMySat

Download on the App Store